STARLINK-32949, 63145

Orbit data source: Space-Track

STARLINK-32949, 63145 is a payload satellite owned by SpaceX/Seattle (US) in LEO that was launched on Mon, 03 Mar 2025 UTC via an FALCON 9 launch vehicle from the Air Force Eastern Test Range (AFETR). Payload-class satellites include a variety of spacecraft equipped with specific instruments for various scientific and technological missions. These include communications satellites like Starlink; space stations such as the ISS; scientific satellites like the Hubble; Earth observation satellites from companies like Planet Labs, Umbra, and HawkEye 360; GPS; miniature CubeSats for education and research; and military/defense satellites.

Loading next visibility...
Identifier
63145, 2025-043P
Orbit
LEO
Last TLE update
17 hours ago
Origin
Manufacturer
SpaceX/Seattle
Mission
Operational Commercial Communications
Bus & Motor
STARLINK V2M, Unknown motor
Mass
730 kg wet, ~700 kg dry
Launch date (UTC)
2025-03-03 (2 months ago)
Launch vehicle
FALCON 9
Launch site
Air Force Eastern Test Range (AFETR)
Object type
Payload
Rocket body
Debris
Shape & HBR
Box + 2 Pan, 29 m
Radar Cross Section
33.884 m², Large (>1 m²)

Expand to show TLE details & history

TLE from 17 hours ago
0 STARLINK-32949
1 63145U 25043P   25132.87083997  .00002096  00000-0  57430-4 0  9997
2 63145  43.0016 278.7677 0001235 274.3059  85.7656 15.40690408 11882
Epoch: 2025-05-12T20:54Z
Definitive object data (Epoch: 2025-05-12T20:54:00.573Z)
Latitude
-0.00004°
Longitude
94.38755°
Altitude
443.783 km
Speed
7.648 km/s
True Right ascension
18h 35m 04s
True Declination
0° 00' 00"
Sunlit
Object was in full shadow at TLE epoch
Visualization TLE readout
Latitude
40.25378°
Longitude
154.74027°
Altitude
447.314 km
Speed
7.649 km/s
Apparent Right ascension
20h 36m 31s
Apparent Declination
40° 37' 47"
Sunlit
Object is in daylight
Visualization observer readout
Local Sidereal Time
22:45:08
Azimuth
282.175° WNW
Elevation
65.594°
Doppler factor
1
Orbital elements
Apogee altitude
446.869 km
Perigee altitude
445.184 km
Semi-major axis
6,824.163 km
Eccentricity
0.0001235
Inclination
43.0016°
RAAN
278.7677°
Arg. of periapsis
274.3059°
True anomaly
85.77971°
Mean anomaly
85.7656°
Eccentric anomaly
85.77266°
Mean motion
3.85007 °/min
BSTAR
0.00005743
Orbital period
93.5 mins
Loading maneuver chart data...
Loading SW <> Apogee altitude chart data...
Loading historical data...
Loading historical data...
Loading historical data...
Loading historical data...
Loading historical data...
Loading historical data...
Loading historical data...

STARLINK-32949 Visibility forecast

Observer location: undefined°, undefined°

Span
Click to sort rows by Start time (UTC) header in descending order
Start Az.
Max El. time (UTC)
Max El. Az.
Max El.
End time (UTC)
End Az.
5 mins2025-05-13 15:56:14.576Z297.719° NW2025-05-13 15:58:14.576Z20.956° NNE36.382°2025-05-13 16:01:14.576Z77.587° E
5 mins2025-05-13 17:34:14.576Z287.882° WNW2025-05-13 17:36:14.576Z129.937° SE44.943°2025-05-13 17:39:14.576Z109.793° ESE
5 mins2025-05-14 13:37:14.576Z250.481° W2025-05-14 13:39:14.576Z232° WSW44.974°2025-05-14 13:42:14.576Z71.983° E
|